Location: Christianberg
(48.9086°N, 14.0209°E)
Time: 20:23:59
(UTC+00:00)

SL-4 R/B - Pass Details

Date: 24 October 2021
Orbit: 427 x 661 km, 51.6° (Epoch: 03 December)

Event Time Altitude Azimuth Distance (km) Brightness Sun altitude
Exits shadow 04:26:41 19° 266° (W) 1,411 3.5 -12.4°
Maximum altitude 04:28:56 30° 220° (SW) 1,026 3.1 -12.0°
Drops below altitude 10° 04:32:28 10° 159° (SSE) 1,775 5.0 -11.4°
Sets 04:34:46 0° 148° (SSE) 2,616 6.1 -11.1°
